FW4310 Weather Reports


time (UTC)temp
C
wind
direction
speed
KPH
gust
KPH
rain 1hr
cm
rain 24hr
cm
rain mn
cm
humidity
%
barometer
mb
20260506222005 23 227 4.8 16.1 0.00 0.00 0.00 81 1016.0
20260506221004 23 225 4.8 14.5 0.00 0.00 0.00 80 1015.9
20260506220501 23 146 6.4 16.1 0.00 0.00 0.00 80 1015.9
20260506220004 24 136 4.8 16.1 0.00 0.00 0.00 80 1015.9
20260506215503 24 209 4.8 12.9 0.00 0.00 0.00 80 1015.8
20260506215005 24 212 6.4 12.9 0.00 0.00 0.00 80 1015.8
20260506214502 24 182 4.8 14.5 0.00 0.00 0.00 79 1016.0
20260506214001 24 144 4.8 16.1 0.00 0.00 0.00 79 1016.1
20260506213502 24 114 6.4 19.3 0.00 0.00 0.00 79 1016.1
20260506213002 24 215 6.4 19.3 0.00 0.00 0.00 79 1016.2
20260506212504 24 220 6.4 16.1 0.00 0.00 0.00 79 1016.2
20260506212001 24 221 6.4 16.1 0.00 0.00 0.00 78 1016.2
20260506211502 24 225 4.8 16.1 0.00 0.00 0.00 78 1016.3
20260506211001 24 217 6.4 14.5 0.00 0.00 0.00 78 1016.3
20260506210503 24 165 6.4 14.5 0.00 0.00 0.00 78 1016.2
20260506210001 25 194 6.4 16.1 0.00 0.00 0.00 77 1016.3
20260506205513 25 157 6.4 16.1 0.00 0.00 0.00 77 1016.2
20260506205007 24 190 4.8 16.1 0.00 0.00 0.00 76 1016.4
20260506204505 25 217 4.8 14.5 0.00 0.00 0.00 76 1016.5
20260506204007 25 178 6.4 16.1 0.00 0.00 0.00 76 1016.5
20260506203505 25 155 4.8 16.1 0.00 0.00 0.00 76 1016.5
20260506203004 25 197 6.4 17.7 0.00 0.00 0.00 77 1016.5
20260506202723 25 237 6.4 17.7 0.00 0.00 0.00 75 1016.7
20260506202002 25 207 6.4 19.3 0.00 0.00 0.00 76 1016.8
20260506201501 24 212 6.4 19.3 0.00 0.00 0.00 76 1016.9
20260506201221 25 195 6.4 14.5 0.00 0.00 0.00 74 1016.9
20260506200726 25 180 6.4 16.1 0.00 0.00 0.00 75 1017.0
20260506195958 25 146 6.4 20.9 0.00 0.00 0.00 75 1017.0
20260506195455 25 75 6.4 20.9 0.00 0.00 0.00 76 1017.0
20260506194956 25 186 6.4 16.1 0.00 0.00 0.00 75 1017.1
20260506194456 25 224 6.4 17.7 0.00 0.00 0.00 75 1017.0
20260506193953 25 171 4.8 17.7 0.00 0.00 0.00 74 1017.0
20260506193453 25 217 6.4 14.5 0.00 0.00 0.00 74 1017.1
20260506192954 25 137 6.4 17.7 0.00 0.00 0.00 75 1017.3
20260506191953 25 219 6.4 14.5 0.00 0.00 0.00 76 1017.5
20260506191456 25 101 6.4 16.1 0.00 0.00 0.00 76 1017.5
20260506190954 25 227 4.8 16.1 0.00 0.00 0.00 74 1017.4
20260506190452 25 212 4.8 14.5 0.00 0.00 0.00 75 1017.5
20260506185951 24 178 4.8 14.5 0.00 0.00 0.00 75 1017.7
20260506185451 25 198 6.4 14.5 0.00 0.00 0.00 75 1017.8
20260506185215 25 208 6.4 14.5 0.00 0.00 0.00 74 1017.9
20260506184452 25 233 4.8 14.5 0.00 0.00 0.00 73 1018.1
20260506183952 25 217 4.8 16.1 0.00 0.00 0.00 74 1017.9
20260506183451 26 178 3.2 16.1 0.00 0.00 0.00 72 1018.0
20260506182952 26 194 4.8 14.5 0.00 0.00 0.00 72 1018.1
20260506182714 25 267 4.8 16.1 0.00 0.00 0.00 74 1018.1
20260506181945 25 207 4.8 16.1 0.00 0.00 0.00 72 1018.0
20260506181444 26 218 4.8 11.3 0.00 0.00 0.00 74 1018.1
20260506180941 25 209 4.8 16.1 0.00 0.00 0.00 74 1018.1
20260506180441 25 227 4.8 16.1 0.00 0.00 0.00 75 1018.3
20260506175942 25 107 6.4 16.1 0.00 0.00 0.00 75 1018.3
20260506175444 25 183 6.4 16.1 0.00 0.00 0.00 75 1018.4
20260506174945 25 205 4.8 16.1 0.00 0.00 0.00 74 1018.4
20260506174442 25 178 4.8 14.5 0.00 0.00 0.00 76 1018.4
20260506173942 25 188 4.8 14.5 0.00 0.00 0.00 75 1018.6
20260506173442 25 208 4.8 12.9 0.00 0.00 0.00 77 1018.6
20260506172942 25 167 4.8 16.1 0.00 0.00 0.00 76 1018.7
20260506172714 25 40 4.8 16.1 0.00 0.00 0.00 76 1018.8
20260506171942 25 140 6.4 20.9 0.00 0.00 0.00 75 1018.9
20260506171439 24 229 8.0 20.9 0.00 0.00 0.00 75 1019.0
20260506170937 25 257 6.4 19.3 0.00 0.00 0.00 74 1018.8
20260506170435 25 225 4.8 17.7 0.00 0.00 0.00 74 1018.9
20260506165933 25 240 4.8 17.7 0.00 0.00 0.00 75 1018.9
20260506165701 24 225 4.8 12.9 0.00 0.00 0.00 77 1018.8
20260506164932 24 237 4.8 12.9 0.00 0.00 0.00 77 1018.8
20260506164433 25 219 4.8 12.9 0.00 0.00 0.00 76 1018.9
20260506163932 25 205 4.8 14.5 0.00 0.00 0.00 73 1018.9
20260506163654 25 170 4.8 17.7 0.00 0.00 0.00 73 1019.0
20260506162933 25 263 4.8 17.7 0.00 0.00 0.00 73 1019.2
20260506162434 25 228 4.8 14.5 0.00 0.00 0.00 73 1018.9
20260506161933 25 215 6.4 12.9 0.00 0.00 0.00 71 1018.9
20260506161433 25 329 6.4 14.5 0.00 0.00 0.00 73 1018.9
20260506160933 25 261 6.4 16.1 0.00 0.00 0.00 74 1019.1
20260506160434 24 221 6.4 19.3 0.00 0.00 0.00 74 1019.2
20260506155932 24 229 6.4 25.7 0.00 0.00 0.00 74 1019.4
20260506155434 24 215 6.4 25.7 0.00 0.00 0.00 74 1019.3
20260506154933 24 122 4.8 14.5 0.00 0.00 0.00 74 1019.3
20260506154433 25 259 4.8 11.3 0.00 0.00 0.00 75 1019.3
20260506153932 24 172 6.4 16.1 0.00 0.00 0.00 75 1019.5
20260506153432 24 223 6.4 16.1 0.00 0.00 0.00 75 1019.3
20260506152933 24 226 6.4 17.7 0.00 0.00 0.00 76 1019.3
20260506152654 23 246 6.4 17.7 0.00 0.00 0.00 77 1019.2
20260506152436 23 246 6.4 17.7 0.00 0.00 0.00 77 1019.2
20260506152156 23 241 6.4 19.3 0.00 0.00 0.00 76 1019.3
20260506151653 23 225 6.4 19.3 0.00 0.00 0.00 76 1019.4
20260506150934 24 217 6.4 19.3 0.00 0.00 0.00 76 1019.3
20260506150431 23 217 6.4 20.9 0.00 0.00 0.00 76 1019.3
20260506145929 23 281 4.8 20.9 0.00 0.00 0.00 76 1019.3
20260506145431 23 236 4.8 12.9 0.00 0.00 0.00 76 1019.3
20260506144929 23 252 6.4 14.5 0.00 0.00 0.00 76 1019.2
20260506144430 23 243 6.4 17.7 0.00 0.00 0.00 77 1019.1
20260506144153 23 229 6.4 17.7 0.00 0.00 0.00 74 1019.0
20260506143420 25 253 4.8 14.5 0.00 0.00 0.00 73 1019.1
20260506143158 25 196 3.2 12.9 0.00 0.00 0.00 74 1019.0
20260506142642 25 184 3.2 11.3 0.00 0.00 0.00 74 1018.6
20260506141909 25 189 3.2 11.3 0.00 0.00 0.00 73 1018.7
20260506141407 23 216 4.8 12.9 0.00 0.00 0.00 76 1018.8
20260506140633 23 246 6.4 14.5 0.00 0.00 0.00 74 1019.0
20260506140135 24 254 4.8 16.1 0.00 0.00 0.00 74 1018.9
20260506135631 24 230 4.8 16.1 0.00 0.00 0.00 73 1018.9
20260506135133 24 188 4.8 11.3 0.00 0.00 0.00 75 1018.8
20260506134629 24 182 4.8 14.5 0.00 0.00 0.00 74 1018.7
20260506133904 24 188 4.8 14.5 0.00 0.00 0.00 73 1018.6
20260506133404 24 147 4.8 16.1 0.00 0.00 0.00 74 1018.7
20260506132905 23 244 4.8 16.1 0.00 0.00 0.00 74 1018.5
20260506132401 23 228 3.2 16.1 0.00 0.00 0.00 74 1018.5
20260506131902 23 210 4.8 16.1 0.00 0.00 0.00 75 1018.6
20260506131403 23 221 4.8 16.1 0.00 0.00 0.00 74 1018.6
20260506130902 23 238 4.8 12.9 0.00 0.00 0.00 75 1018.6
20260506130634 23 73 4.8 14.5 0.00 0.00 0.00 74 1018.4
20260506125906 23 234 4.8 14.5 0.00 0.00 0.00 75 1018.2
20260506125403 23 215 4.8 9.7 0.00 0.00 0.00 76 1018.3
20260506124905 23 225 4.8 11.3 0.00 0.00 0.00 75 1018.2
20260506124401 23 167 4.8 14.5 0.00 0.00 0.00 75 1018.1
20260506123903 23 265 3.2 14.5 0.00 0.00 0.00 75 1018.2
20260506123621 23 239 4.8 16.1 0.00 0.00 0.00 76 1018.2
20260506123131 23 189 4.8 16.1 0.00 0.00 0.00 77 1018.2
20260506122401 23 182 3.2 11.3 0.00 0.00 0.00 77 1018.2
20260506121902 22 175 3.2 11.3 0.00 0.00 0.00 78 1018.2
20260506121405 22 234 3.2 11.3 0.00 0.00 0.00 79 1018.2
20260506120901 22 236 4.8 11.3 0.00 0.00 0.00 79 1018.2
20260506120401 22 174 3.2 8.0 0.00 0.00 0.00 79 1018.1
20260506115903 22 198 3.2 11.3 0.00 0.00 0.00 79 1018.2
20260506115626 22 210 3.2 11.3 0.00 0.00 0.00 80 1018.1
20260506114905 22 226 3.2 8.0 0.00 0.00 0.00 81 1018.0
20260506114400 22 225 3.2 8.0 0.00 0.00 0.00 81 1018.0
20260506113404 22 181 3.2 9.7 0.00 0.00 0.00 81 1017.7
20260506112856 21 224 3.2 9.7 0.00 0.00 0.00 81 1017.8
20260506112614 21 225 3.2 9.7 0.00 0.00 0.00 81 1017.7
20260506111846 21 198 3.2 8.0 0.00 0.00 0.00 81 1017.7
20260506111604 21 240 3.2 8.0 0.00 0.00 0.00 82 1017.7
20260506110832 21 196 3.2 9.7 0.00 0.00 0.00 82 1017.8
20260506110330 21 200 3.2 9.7 0.00 0.00 0.00 82 1017.8
20260506105829 21 203 3.2 8.0 0.00 0.00 0.00 82 1017.8
20260506105330 21 198 3.2 8.0 0.00 0.00 0.00 82 1017.7
20260506104830 21 198 3.2 6.4 0.00 0.00 0.00 82 1017.7
20260506104330 21 214 3.2 6.4 0.00 0.00 0.00 82 1017.6
20260506104054 21 213 3.2 6.4 0.00 0.00 0.00 82 1017.6
20260506103330 20 213 3.2 6.4 0.00 0.00 0.00 82 1017.4
20260506102832 20 181 3.2 6.4 0.00 0.00 0.00 82 1017.4
20260506102330 21 184 3.2 6.4 0.00 0.00 0.00 82 1017.5
20260506101831 21 219 3.2 6.4 0.00 0.00 0.00 82 1017.5
20260506101552 20 200 3.2 6.4 0.00 0.00 0.00 81 1017.5
20260506100829 20 200 3.2 6.4 0.00 0.00 0.00 82 1017.4
20260506100334 20 200 3.2 6.4 0.00 0.00 0.00 81 1017.5
20260506100054 20 216 3.2 8.0 0.00 0.00 0.00 81 1017.6
20260506095330 20 216 3.2 8.0 0.00 0.00 0.00 81 1017.6
20260506094830 20 204 1.6 6.4 0.00 0.00 0.00 81 1017.4
20260506094333 20 215 1.6 4.8 0.00 0.00 0.00 81 1017.4
20260506093826 20 217 3.2 4.8 0.00 0.00 0.00 80 1017.5
20260506093547 21 217 3.2 4.8 0.00 0.00 0.00 80 1017.6
20260506093044 21 218 3.2 8.0 0.00 0.00 0.00 80 1017.6
20260506092548 21 218 3.2 8.0 0.00 0.00 0.00 80 1017.5
20260506091816 20 252 1.6 6.4 0.00 0.00 0.00 79 1017.5
20260506091313 21 216 3.2 8.0 0.00 0.00 0.00 79 1017.4
20260506090813 21 215 3.2 8.0 0.00 0.00 0.00 79 1017.4
20260506090313 21 214 3.2 8.0 0.00 0.00 0.00 79 1017.5
20260506090037 21 214 1.6 8.0 0.00 0.00 0.00 78 1017.5
20260506085313 21 233 3.2 6.4 0.00 0.00 0.00 78 1017.6
20260506085033 21 217 3.2 6.4 0.00 0.00 0.00 78 1017.5
20260506084309 21 230 3.2 9.7 0.00 0.00 0.00 78 1017.6
20260506083808 21 202 3.2 9.7 0.00 0.00 0.00 77 1017.7
20260506083307 21 211 4.8 11.3 0.00 0.00 0.00 77 1017.6
20260506082806 21 212 3.2 11.3 0.00 0.00 0.00 77 1017.6
20260506082306 21 190 3.2 8.0 0.00 0.00 0.00 77 1017.5
20260506081807 21 223 3.2 8.0 0.00 0.00 0.00 77 1017.6
20260506081307 21 223 3.2 8.0 0.00 0.00 0.00 76 1017.6
20260506080806 21 227 3.2 8.0 0.00 0.00 0.00 76 1017.5
20260506080307 21 227 3.2 9.7 0.00 0.00 0.00 76 1017.6
20260506073304 21 219 3.2 9.7 0.00 0.00 0.00 77 1017.6
20260506072802 21 155 3.2 9.7 0.00 0.00 0.00 77 1017.5
20260506072305 21 218 3.2 8.0 0.00 0.00 0.00 76 1017.4
20260506072028 21 198 3.2 6.4 0.00 0.00 0.00 76 1017.4
20260506071302 21 211 3.2 8.0 0.00 0.00 0.00 76 1017.5
20260506070802 21 215 3.2 8.0 0.00 0.00 0.00 76 1017.4
20260506070302 21 227 3.2 8.0 0.00 0.00 0.00 76 1017.5
20260506061806 20 197 3.2 9.7 0.00 0.00 0.00 77 1018.0
20260506061300 20 184 3.2 9.7 0.00 0.00 0.00 77 1017.8
20260506060802 20 186 3.2 8.0 0.00 0.00 0.00 77 1017.8
20260506060301 20 166 3.2 9.7 0.00 0.00 0.00 77 1018.0
20260506051254 20 175 4.8 9.7 0.00 0.00 0.00 76 1018.4
20260506050754 20 184 3.2 8.0 0.00 0.00 0.00 77 1018.4
20260506050254 20 192 3.2 6.4 0.00 0.00 0.00 77 1018.5
20260506044757 21 188 4.8 9.7 0.00 0.00 0.00 74 1018.5
20260506044254 21 188 4.8 9.7 0.00 0.00 0.00 74 1018.4
20260506044023 21 187 4.8 11.3 0.00 0.00 0.00 73 1018.5
20260506043254 21 192 4.8 11.3 0.00 0.00 0.00 73 1018.6
20260506042753 21 194 4.8 9.7 0.00 0.00 0.00 72 1018.6
20260506042516 21 202 4.8 9.7 0.00 0.00 0.00 72 1018.5
20260506042009 21 180 4.8 14.5 0.00 0.00 0.00 72 1018.6
20260506041506 21 144 6.4 14.5 0.00 0.00 0.00 72 1018.6
20260506040738 21 159 6.4 12.9 0.00 0.00 0.00 72 1018.6
20260506040233 21 198 6.4 14.5 0.00 0.00 0.00 72 1018.6
20260506035732 21 178 6.4 14.5 0.00 0.00 0.00 72 1018.6
20260506035229 21 198 6.4 12.9 0.00 0.00 0.00 72 1018.5
20260506034730 21 143 6.4 11.3 0.00 0.00 0.00 72 1018.5
20260506034456 21 194 6.4 11.3 0.00 0.00 0.00 71 1018.5
20260506033731 21 187 4.8 11.3 0.00 0.00 0.00 71 1018.5
20260506033230 21 126 4.8 11.3 0.00 0.00 0.00 71 1018.5
20260506032730 21 154 6.4 16.1 0.00 0.00 0.00 71 1018.6
20260506032450 21 137 8.0 16.1 0.00 0.00 0.00 71 1018.6
20260506031728 21 180 9.7 16.1 0.00 0.00 0.00 70 1018.5
20260506031228 21 188 9.7 16.1 0.00 0.00 0.00 69 1018.5
20260506030229 21 159 8.0 16.1 0.00 0.00 0.00 70 1018.6
20260506025953 21 146 8.0 16.1 0.00 0.00 0.00 68 1018.7
20260506025229 21 190 9.7 16.1 0.00 0.00 0.00 69 1018.5
20260506024728 21 169 9.7 16.1 0.00 0.00 0.00 69 1018.6
20260506024225 21 261 8.0 16.1 0.00 0.00 0.00 69 1018.7
20260506023727 21 195 9.7 16.1 0.00 0.00 0.00 69 1018.6
20260506023227 21 175 8.0 16.1 0.00 0.00 0.00 68 1018.5
20260506022956 21 119 8.0 14.5 0.00 0.00 0.00 69 1018.6
20260506022226 21 182 6.4 12.9 0.00 0.00 0.00 69 1018.7
20260506021723 21 136 6.4 14.5 0.00 0.00 0.00 68 1018.7
20260506021224 21 110 8.0 16.1 0.00 0.00 0.00 69 1018.6
20260506020725 21 178 8.0 16.1 0.00 0.00 0.00 69 1018.6
20260506020220 21 175 8.0 17.7 0.00 0.00 0.00 68 1018.5
20260506015948 21 155 8.0 17.7 0.00 0.00 0.00 68 1018.6
20260506015221 21 193 8.0 17.7 0.00 0.00 0.00 67 1018.5
20260506014721 21 167 9.7 17.7 0.00 0.00 0.00 67 1018.5
20260506014445 21 141 9.7 16.1 0.00 0.00 0.00 67 1018.4
20260506013720 21 168 9.7 16.1 0.00 0.00 0.00 67 1018.4
20260506013221 21 190 8.0 16.1 0.00 0.00 0.00 68 1018.2
20260506012949 21 198 8.0 16.1 0.00 0.00 0.00 67 1018.3
20260506012220 21 199 8.0 16.1 0.00 0.00 0.00 67 1018.4
20260506011719 21 188 6.4 14.5 0.00 0.00 0.00 68 1018.5
20260506011222 21 198 6.4 14.5 0.00 0.00 0.00 68 1018.4
20260506010720 21 203 8.0 17.7 0.00 0.00 0.00 67 1018.4
20260506010220 21 186 8.0 17.7 0.00 0.00 0.00 66 1018.3
20260506005720 21 156 8.0 14.5 0.00 0.00 0.00 67 1018.3
20260506005218 21 195 8.0 17.7 0.00 0.00 0.00 66 1018.4
20260506004718 21 159 8.0 17.7 0.00 0.00 0.00 66 1018.2
20260506004222 21 179 8.0 14.5 0.00 0.00 0.00 68 1018.1
20260506003715 21 171 8.0 17.7 0.00 0.00 0.00 69 1018.1
20260506003216 21 165 8.0 17.7 0.00 0.00 0.00 68 1018.3
20260506002713 21 194 8.0 16.1 0.00 0.00 0.00 67 1018.2
20260506002214 21 188 8.0 16.1 0.00 0.00 0.00 68 1018.3
20260506001936 21 194 6.4 12.9 0.00 0.00 0.00 68 1018.4
20260506001208 21 190 6.4 16.1 0.00 0.00 0.00 68 1018.4
20260506000706 21 154 8.0 16.1 0.00 0.00 0.00 68 1018.5
20260506000205 21 151 8.0 12.9 0.00 0.00 0.00 67 1018.6
20260505235705 21 153 6.4 14.5 0.00 0.00 0.00 68 1018.4
20260505235206 21 183 8.0 16.1 0.00 0.00 0.00 67 1018.2
20260505234706 21 185 8.0 16.1 0.00 0.00 0.00 68 1018.3
20260505234204 21 180 8.0 14.5 0.00 0.00 0.00 68 1018.3
20260505233705 21 221 6.4 12.9 0.00 0.00 0.00 67 1018.2
20260505233205 21 194 6.4 14.5 0.00 0.00 0.00 67 1018.0
20260505232923 21 204 8.0 16.1 0.00 0.00 0.00 68 1017.9
20260505232208 22 212 8.0 16.1 0.00 0.00 0.00 67 1018.0
20260505231931 22 190 8.0 14.5 0.00 0.00 0.00 66 1018.0
20260505231207 21 163 8.0 14.5 0.00 0.00 0.00 68 1018.0
20260505230707 21 187 8.0 16.1 0.00 0.00 0.00 68 1018.2
20260505225934 22 152 9.7 16.1 0.00 0.00 0.00 68 1018.1
20260505225205 22 184 8.0 16.1 0.00 0.00 0.00 67 1018.2
20260505224704 22 136 8.0 14.5 0.00 0.00 0.00 68 1018.2
20260505224205 22 167 8.0 19.3 0.00 0.00 0.00 67 1018.2
20260505223706 22 169 8.0 19.3 0.00 0.00 0.00 67 1018.2
20260505223203 22 148 8.0 19.3 0.00 0.00 0.00 68 1018.4
20260505222704 22 194 9.7 19.3 0.00 0.00 0.00 67 1018.4
20260505222206 22 184 8.0 17.7 0.00 0.00 0.00 67 1018.6